date,time,humid
2017-01-01,00:00,-999
2017-01-01,01:00,-999
2017-01-01,02:00,-999
2017-01-01,03:00,-999
2017-01-01,04:00,-999
2017-01-01,05:00,-999
2017-01-01,06:00,21.17
2017-01-01,07:00,34
2017-01-01,08:00,36.67
2017-01-01,09:00,23.5
2017-01-01,10:00,22.67
2017-01-01,11:00,-999
2017-01-01,12:00,-999
2017-01-01,13:00,-999
2017-01-01,14:00,-999
2017-01-01,15:00,-999
2017-01-01,16:00,-999
2017-01-01,17:00,-999
2017-01-01,18:00,-999
2017-01-01,19:00,-999
2017-01-01,20:00,-999
2017-01-01,21:00,-999
2017-01-01,22:00,-999
2017-01-01,23:00,-999
2017-01-02,00:00,-999
2017-01-02,01:00,26
2017-01-02,02:00,31.83
2017-01-02,03:00,32.67
2017-01-02,04:00,32.83
2017-01-02,05:00,39.83
2017-01-02,06:00,42.17
2017-01-02,07:00,42.5
2017-01-02,08:00,46
2017-01-02,09:00,33.5
2017-01-02,10:00,24
2017-01-02,11:00,20.83
2017-01-02,12:00,-999
2017-01-02,13:00,22.17
2017-01-02,14:00,-999
2017-01-02,15:00,-999
2017-01-02,16:00,23
2017-01-02,17:00,-999
2017-01-02,18:00,22.67
2017-01-02,19:00,27.5
2017-01-02,20:00,27.83
2017-01-02,21:00,28.17
2017-01-02,22:00,30.5
2017-01-02,23:00,32.17
2017-01-03,00:00,34.5
2017-01-03,01:00,37.67
2017-01-03,02:00,40
2017-01-03,03:00,41.17
2017-01-03,04:00,42.5
2017-01-03,05:00,41.67
2017-01-03,06:00,42.17
2017-01-03,07:00,44.67
2017-01-03,08:00,50.67
2017-01-03,09:00,41
2017-01-03,10:00,51.67
2017-01-03,11:00,49.67
2017-01-03,12:00,58.17
2017-01-03,13:00,58.67
2017-01-03,14:00,42.83
2017-01-03,15:00,33.33
2017-01-03,16:00,31.83
2017-01-03,17:00,48.17
2017-01-03,18:00,56.33
2017-01-03,19:00,56.33
2017-01-03,20:00,59.17
2017-01-03,21:00,58.33
2017-01-03,22:00,61
2017-01-03,23:00,60.67
2017-01-04,00:00,60
2017-01-04,01:00,60.17
2017-01-04,02:00,59.5
2017-01-04,03:00,59.83
2017-01-04,04:00,59.5
2017-01-04,05:00,59.67
2017-01-04,06:00,60.17
2017-01-04,07:00,60.33
2017-01-04,08:00,62.33
2017-01-04,09:00,63
2017-01-04,10:00,62.67
2017-01-04,11:00,65.17
2017-01-04,12:00,68.5
2017-01-04,13:00,69.5
2017-01-04,14:00,71.67
2017-01-04,15:00,72.33
2017-01-04,16:00,70.17
2017-01-04,17:00,69.83
2017-01-04,18:00,69.83
2017-01-04,19:00,69.33
2017-01-04,20:00,69.17
2017-01-04,21:00,69
2017-01-04,22:00,69.17
2017-01-04,23:00,69.5
2017-01-05,00:00,69.5
2017-01-05,01:00,70.17
2017-01-05,02:00,72
2017-01-05,03:00,73
2017-01-05,04:00,74
2017-01-05,05:00,75
2017-01-05,06:00,75
2017-01-05,07:00,76.67
2017-01-05,08:00,77.5
2017-01-05,09:00,78.17
2017-01-05,10:00,78.83
2017-01-05,11:00,79
2017-01-05,12:00,80.67
2017-01-05,13:00,80.67
2017-01-05,14:00,81.83
2017-01-05,15:00,82.5
2017-01-05,16:00,82.83
2017-01-05,17:00,82.83
2017-01-05,18:00,82.17
2017-01-05,19:00,80.67
2017-01-05,20:00,80.83
2017-01-05,21:00,80.67
2017-01-05,22:00,81.5
2017-01-05,23:00,82.83
2017-01-06,00:00,83.83
2017-01-06,01:00,84.33
2017-01-06,02:00,85
2017-01-06,03:00,85.5
2017-01-06,04:00,86.83
2017-01-06,05:00,87.67
2017-01-06,06:00,88.83
2017-01-06,07:00,90.17
2017-01-06,08:00,91.67
2017-01-06,09:00,91.83
2017-01-06,10:00,91.33
2017-01-06,11:00,-999
2017-01-06,12:00,92.33
2017-01-06,13:00,93.67
2017-01-06,14:00,95.5
2017-01-06,15:00,97.5
2017-01-06,16:00,-999
2017-01-06,17:00,-999
2017-01-06,18:00,-999
2017-01-06,19:00,-999
2017-01-06,20:00,-999
2017-01-06,21:00,99.67
2017-01-06,22:00,99.33
2017-01-06,23:00,100
2017-01-07,00:00,-999
2017-01-07,01:00,-999
2017-01-07,02:00,-999
2017-01-07,03:00,-999
2017-01-07,04:00,-999
2017-01-07,05:00,-999
2017-01-07,06:00,100
2017-01-07,07:00,100.33
2017-01-07,08:00,100
2017-01-07,09:00,-999
2017-01-07,10:00,-999
2017-01-07,11:00,-999
2017-01-07,12:00,-999
2017-01-07,13:00,95.67
2017-01-07,14:00,93.83
2017-01-07,15:00,84.33
2017-01-07,16:00,92
2017-01-07,17:00,93
2017-01-07,18:00,97.67
2017-01-07,19:00,-999
2017-01-07,20:00,-999
2017-01-07,21:00,-999
2017-01-07,22:00,-999
2017-01-07,23:00,-999
2017-01-08,00:00,-999
2017-01-08,01:00,-999
2017-01-08,02:00,-999
2017-01-08,03:00,-999
2017-01-08,04:00,-999
2017-01-08,05:00,-999
2017-01-08,06:00,-999
2017-01-08,07:00,-999
2017-01-08,08:00,-999
2017-01-08,09:00,-999
2017-01-08,10:00,-999
2017-01-08,11:00,-999
2017-01-08,12:00,-999
2017-01-08,13:00,99
2017-01-08,14:00,95.83
2017-01-08,15:00,98.17
2017-01-08,16:00,-999
2017-01-08,17:00,-999
2017-01-08,18:00,-999
2017-01-08,19:00,100.33
2017-01-08,20:00,99.5
2017-01-08,21:00,99.67
2017-01-08,22:00,99
2017-01-08,23:00,97.5
2017-01-09,00:00,96.67
2017-01-09,01:00,95
2017-01-09,02:00,93.17
2017-01-09,03:00,92.5
2017-01-09,04:00,91.5
2017-01-09,05:00,92
2017-01-09,06:00,90.83
2017-01-09,07:00,91.67
2017-01-09,08:00,95
2017-01-09,09:00,92.17
2017-01-09,10:00,71.5
2017-01-09,11:00,98.17
2017-01-09,12:00,54
2017-01-09,13:00,44.83
2017-01-09,14:00,43.83
2017-01-09,15:00,48.67
2017-01-09,16:00,57.67
2017-01-09,17:00,79.33
2017-01-09,18:00,88.5
2017-01-09,19:00,89.33
2017-01-09,20:00,91
2017-01-09,21:00,89.5
2017-01-09,22:00,89.5
2017-01-09,23:00,89.83
2017-01-10,00:00,90.33
2017-01-10,01:00,90.17
2017-01-10,02:00,90.5
2017-01-10,03:00,90.17
2017-01-10,04:00,90
2017-01-10,05:00,90.67
2017-01-10,06:00,90.83
2017-01-10,07:00,91.17
2017-01-10,08:00,92.33
2017-01-10,09:00,81.83
2017-01-10,10:00,52.83
2017-01-10,11:00,44.83
2017-01-10,12:00,40.83
2017-01-10,13:00,37.17
2017-01-10,14:00,43
2017-01-10,15:00,78.33
2017-01-10,16:00,86.67
2017-01-10,17:00,87.83
2017-01-10,18:00,87.17
2017-01-10,19:00,86
2017-01-10,20:00,85.67
2017-01-10,21:00,85.5
2017-01-10,22:00,85.5
2017-01-10,23:00,85.67
2017-01-11,00:00,85.67
2017-01-11,01:00,86.67
2017-01-11,02:00,85.83
2017-01-11,03:00,86.17
2017-01-11,04:00,86
2017-01-11,05:00,87
2017-01-11,06:00,85.17
2017-01-11,07:00,87
2017-01-11,08:00,88.67
2017-01-11,09:00,88.67
2017-01-11,10:00,67.5
2017-01-11,11:00,49
2017-01-11,12:00,45
2017-01-11,13:00,43.17
2017-01-11,14:00,43
2017-01-11,15:00,81.5
2017-01-11,16:00,80.17
2017-01-11,17:00,66
2017-01-11,18:00,69.33
2017-01-11,19:00,78.5
2017-01-11,20:00,85.17
2017-01-11,21:00,83.83
2017-01-11,22:00,84.67
2017-01-11,23:00,85.5
2017-01-12,00:00,86
2017-01-12,01:00,84.83
2017-01-12,02:00,82
2017-01-12,03:00,84.83
2017-01-12,04:00,83
2017-01-12,05:00,84.67
2017-01-12,06:00,87
2017-01-12,07:00,86.83
2017-01-12,08:00,85.33
2017-01-12,09:00,77
2017-01-12,10:00,49.83
2017-01-12,11:00,-999
2017-01-12,12:00,28.5
2017-01-12,13:00,29.5
2017-01-12,14:00,32
2017-01-12,15:00,28.83
2017-01-12,16:00,28.33
2017-01-12,17:00,30.17
2017-01-12,18:00,29.17
2017-01-12,19:00,-999
2017-01-12,20:00,59.33
2017-01-12,21:00,68
2017-01-12,22:00,75
2017-01-12,23:00,77.83
2017-01-13,00:00,78
2017-01-13,01:00,78.5
2017-01-13,02:00,76
2017-01-13,03:00,76.5
2017-01-13,04:00,79.67
2017-01-13,05:00,79.33
2017-01-13,06:00,78.33
2017-01-13,07:00,79.33
2017-01-13,08:00,78.83
2017-01-13,09:00,61
2017-01-13,10:00,39.17
2017-01-13,11:00,-999
2017-01-13,12:00,-999
2017-01-13,13:00,-999
2017-01-13,14:00,-999
2017-01-13,15:00,-999
2017-01-13,16:00,-999
2017-01-13,17:00,30.83
2017-01-13,18:00,32.33
2017-01-13,19:00,45.83
2017-01-13,20:00,60.33
2017-01-13,21:00,-999
2017-01-13,22:00,-999
2017-01-13,23:00,70.83
2017-01-14,00:00,71.5
2017-01-14,01:00,72
2017-01-14,02:00,72.17
2017-01-14,03:00,72.67
2017-01-14,04:00,69.83
2017-01-14,05:00,64.67
2017-01-14,06:00,71.83
2017-01-14,07:00,72.17
2017-01-14,08:00,76.17
2017-01-14,09:00,54.33
2017-01-14,10:00,34.17
2017-01-14,11:00,26.17
2017-01-14,12:00,-999
2017-01-14,13:00,-999
2017-01-14,14:00,-999
2017-01-14,15:00,-999
2017-01-14,16:00,-999
2017-01-14,17:00,-999
2017-01-14,18:00,-999
2017-01-14,19:00,-999
2017-01-14,20:00,21.83
2017-01-14,21:00,28
2017-01-14,22:00,35.33
2017-01-14,23:00,42.17
2017-01-15,00:00,46.5
2017-01-15,01:00,51
2017-01-15,02:00,56
2017-01-15,03:00,55.17
2017-01-15,04:00,55.17
2017-01-15,05:00,60
2017-01-15,06:00,63.5
2017-01-15,07:00,70.67
2017-01-15,08:00,73.5
2017-01-15,09:00,46.67
2017-01-15,10:00,31.33
2017-01-15,11:00,24
2017-01-15,12:00,-999
2017-01-15,13:00,-999
2017-01-15,14:00,-999
2017-01-15,15:00,-999
2017-01-15,16:00,-999
2017-01-15,17:00,-999
2017-01-15,18:00,-999
2017-01-15,19:00,-999
2017-01-15,20:00,22.33
2017-01-15,21:00,26
2017-01-15,22:00,31.83
2017-01-15,23:00,36.17
2017-01-16,00:00,40
2017-01-16,01:00,44.67
2017-01-16,02:00,48.17
2017-01-16,03:00,49.67
2017-01-16,04:00,52.33
2017-01-16,05:00,53.67
2017-01-16,06:00,56
2017-01-16,07:00,59
2017-01-16,08:00,60.17
2017-01-16,09:00,45.83
2017-01-16,10:00,34.5
2017-01-16,11:00,27.83
2017-01-16,12:00,28
2017-01-16,13:00,28.67
2017-01-16,14:00,27.5
2017-01-16,15:00,24.5
2017-01-16,16:00,21.67
2017-01-16,17:00,20
2017-01-16,18:00,-999
2017-01-16,19:00,-999
2017-01-16,20:00,24.33
2017-01-16,21:00,30.83
2017-01-16,22:00,36.67
2017-01-16,23:00,42.33
2017-01-17,00:00,47.5
2017-01-17,01:00,51.5
2017-01-17,02:00,53.17
2017-01-17,03:00,52.83
2017-01-17,04:00,55.5
2017-01-17,05:00,56.67
2017-01-17,06:00,58.83
2017-01-17,07:00,63.17
2017-01-17,08:00,68.17
2017-01-17,09:00,65.17
2017-01-17,10:00,68
2017-01-17,11:00,69.33
2017-01-17,12:00,67.17
2017-01-17,13:00,58.67
2017-01-17,14:00,49
2017-01-17,15:00,40.33
2017-01-17,16:00,59.17
2017-01-17,17:00,61
2017-01-17,18:00,65.33
2017-01-17,19:00,63.5
2017-01-17,20:00,63
2017-01-17,21:00,64.33
2017-01-17,22:00,65.67
2017-01-17,23:00,72
2017-01-18,00:00,67.17
2017-01-18,01:00,65
2017-01-18,02:00,65.17
2017-01-18,03:00,62.17
2017-01-18,04:00,61.5
2017-01-18,05:00,62.83
2017-01-18,06:00,63.17
2017-01-18,07:00,63.33
2017-01-18,08:00,65
2017-01-18,09:00,64.17
2017-01-18,10:00,42.67
2017-01-18,11:00,44.67
2017-01-18,12:00,34.67
2017-01-18,13:00,32.83
2017-01-18,14:00,33.5
2017-01-18,15:00,31.67
2017-01-18,16:00,30.33
2017-01-18,17:00,30.83
2017-01-18,18:00,29.17
2017-01-18,19:00,41.83
2017-01-18,20:00,52.67
2017-01-18,21:00,56.17
2017-01-18,22:00,59.5
2017-01-18,23:00,62.5
2017-01-19,00:00,64.17
2017-01-19,01:00,64.33
2017-01-19,02:00,64.67
2017-01-19,03:00,64.33
2017-01-19,04:00,64.5
2017-01-19,05:00,65
2017-01-19,06:00,64.5
2017-01-19,07:00,65.33
2017-01-19,08:00,70
2017-01-19,09:00,56.5
2017-01-19,10:00,34.67
2017-01-19,11:00,32
2017-01-19,12:00,27.67
2017-01-19,13:00,28.67
2017-01-19,14:00,26.5
2017-01-19,15:00,23.67
2017-01-19,16:00,-999
2017-01-19,17:00,-999
2017-01-19,18:00,-999
2017-01-19,19:00,-999
2017-01-19,20:00,24.83
2017-01-19,21:00,30.83
2017-01-19,22:00,36.33
2017-01-19,23:00,43
2017-01-20,00:00,46
2017-01-20,01:00,50.17
2017-01-20,02:00,52
2017-01-20,03:00,55
2017-01-20,04:00,55.83
2017-01-20,05:00,57.33
2017-01-20,06:00,57.67
2017-01-20,07:00,58.83
2017-01-20,08:00,60.83
2017-01-20,09:00,63.17
2017-01-20,10:00,60.5
2017-01-20,11:00,56
2017-01-20,12:00,42.5
2017-01-20,13:00,30.5
2017-01-20,14:00,31.33
2017-01-20,15:00,29.83
2017-01-20,16:00,27.5
2017-01-20,17:00,26.83
2017-01-20,18:00,24.83
2017-01-20,19:00,30.17
2017-01-20,20:00,35.83
2017-01-20,21:00,42.83
2017-01-20,22:00,47
2017-01-20,23:00,49.5
2017-01-21,00:00,51.17
2017-01-21,01:00,51.67
2017-01-21,02:00,55.33
2017-01-21,03:00,56
2017-01-21,04:00,58.17
2017-01-21,05:00,59.67
2017-01-21,06:00,60
2017-01-21,07:00,63.17
2017-01-21,08:00,67.33
2017-01-21,09:00,68
2017-01-21,10:00,56.17
2017-01-21,11:00,41.17
2017-01-21,12:00,32.83
2017-01-21,13:00,37.33
2017-01-21,14:00,30.83
2017-01-21,15:00,30
2017-01-21,16:00,23.5
2017-01-21,17:00,35.33
2017-01-21,18:00,39.67
2017-01-21,19:00,46.67
2017-01-21,20:00,53.67
2017-01-21,21:00,58.17
2017-01-21,22:00,60.67
2017-01-21,23:00,62.33
2017-01-22,00:00,62.33
2017-01-22,01:00,61.83
2017-01-22,02:00,62.17
2017-01-22,03:00,62
2017-01-22,04:00,62
2017-01-22,05:00,63
2017-01-22,06:00,62.67
2017-01-22,07:00,64.17
2017-01-22,08:00,62.5
2017-01-22,09:00,43.17
2017-01-22,10:00,32.33
2017-01-22,11:00,28.83
2017-01-22,12:00,27.67
2017-01-22,13:00,25.83
2017-01-22,14:00,29.33
2017-01-22,15:00,27.5
2017-01-22,16:00,25.67
2017-01-22,17:00,24.5
2017-01-22,18:00,20.67
2017-01-22,19:00,21.67
2017-01-22,20:00,23
2017-01-22,21:00,24.33
2017-01-22,22:00,27.17
2017-01-22,23:00,29.33
2017-01-23,00:00,30.67
2017-01-23,01:00,34
2017-01-23,02:00,34.67
2017-01-23,03:00,38.17
2017-01-23,04:00,41.83
2017-01-23,05:00,44.17
2017-01-23,06:00,45.5
2017-01-23,07:00,47.17
2017-01-23,08:00,50.67
2017-01-23,09:00,37.83
2017-01-23,10:00,27.5
2017-01-23,11:00,28.33
2017-01-23,12:00,27.33
2017-01-23,13:00,25.67
2017-01-23,14:00,24.5
2017-01-23,15:00,33.67
2017-01-23,16:00,24.17
2017-01-23,17:00,22
2017-01-23,18:00,29.17
2017-01-23,19:00,41.5
2017-01-23,20:00,44.17
2017-01-23,21:00,46.83
2017-01-23,22:00,49
2017-01-23,23:00,50
2017-01-24,00:00,51
2017-01-24,01:00,50.67
2017-01-24,02:00,49.5
2017-01-24,03:00,49.17
2017-01-24,04:00,48.33
2017-01-24,05:00,50.17
2017-01-24,06:00,53.83
2017-01-24,07:00,54.67
2017-01-24,08:00,60.67
2017-01-24,09:00,39
2017-01-24,10:00,32.17
2017-01-24,11:00,24.83
2017-01-24,12:00,22.5
2017-01-24,13:00,20.67
2017-01-24,14:00,21.83
2017-01-24,15:00,-999
2017-01-24,16:00,-999
2017-01-24,17:00,-999
2017-01-24,18:00,-999
2017-01-24,19:00,-999
2017-01-24,20:00,-999
2017-01-24,21:00,21.67
2017-01-24,22:00,26.17
2017-01-24,23:00,30.33
2017-01-25,00:00,32.5
2017-01-25,01:00,31.67
2017-01-25,02:00,39
2017-01-25,03:00,41.83
2017-01-25,04:00,43.17
2017-01-25,05:00,44.5
2017-01-25,06:00,45
2017-01-25,07:00,46.5
2017-01-25,08:00,48.17
2017-01-25,09:00,36.67
2017-01-25,10:00,26
2017-01-25,11:00,-999
2017-01-25,12:00,-999
2017-01-25,13:00,-999
2017-01-25,14:00,20.33
2017-01-25,15:00,20.5
2017-01-25,16:00,20.33
2017-01-25,17:00,-999
2017-01-25,18:00,-999
2017-01-25,19:00,-999
2017-01-25,20:00,-999
2017-01-25,21:00,21.17
2017-01-25,22:00,24.5
2017-01-25,23:00,27.5
2017-01-26,00:00,32.83
2017-01-26,01:00,35.83
2017-01-26,02:00,38
2017-01-26,03:00,41
2017-01-26,04:00,41.67
2017-01-26,05:00,43.5
2017-01-26,06:00,44.17
2017-01-26,07:00,45.17
2017-01-26,08:00,48
2017-01-26,09:00,37.67
2017-01-26,10:00,32.33
2017-01-26,11:00,26.83
2017-01-26,12:00,24
2017-01-26,13:00,23.67
2017-01-26,14:00,22.33
2017-01-26,15:00,22.67
2017-01-26,16:00,22
2017-01-26,17:00,22.5
2017-01-26,18:00,23.5
2017-01-26,19:00,23.83
2017-01-26,20:00,29.67
2017-01-26,21:00,43.67
2017-01-26,22:00,49.33
2017-01-26,23:00,49.17
2017-01-27,00:00,45.17
2017-01-27,01:00,46.33
2017-01-27,02:00,47
2017-01-27,03:00,50.83
2017-01-27,04:00,51
2017-01-27,05:00,51.33
2017-01-27,06:00,51.83
2017-01-27,07:00,53.17
2017-01-27,08:00,56.83
2017-01-27,09:00,42.83
2017-01-27,10:00,35
2017-01-27,11:00,28.33
2017-01-27,12:00,25.83
2017-01-27,13:00,22.17
2017-01-27,14:00,22.83
2017-01-27,15:00,21.5
2017-01-27,16:00,-999
2017-01-27,17:00,-999
2017-01-27,18:00,-999
2017-01-27,19:00,-999
2017-01-27,20:00,20.67
2017-01-27,21:00,24.5
2017-01-27,22:00,27.83
2017-01-27,23:00,31
2017-01-28,00:00,28.5
2017-01-28,01:00,36.17
2017-01-28,02:00,40
2017-01-28,03:00,40.5
2017-01-28,04:00,42.33
2017-01-28,05:00,43.5
2017-01-28,06:00,43.83
2017-01-28,07:00,45.83
2017-01-28,08:00,51
2017-01-28,09:00,36
2017-01-28,10:00,29
2017-01-28,11:00,21.33
2017-01-28,12:00,-999
2017-01-28,13:00,-999
2017-01-28,14:00,-999
2017-01-28,15:00,-999
2017-01-28,16:00,-999
2017-01-28,17:00,-999
2017-01-28,18:00,-999
2017-01-28,19:00,-999
2017-01-28,20:00,-999
2017-01-28,21:00,-999
2017-01-28,22:00,-999
2017-01-28,23:00,25.17
2017-01-29,00:00,29.17
2017-01-29,01:00,31.17
2017-01-29,02:00,33
2017-01-29,03:00,35.67
2017-01-29,04:00,37.33
2017-01-29,05:00,38.83
2017-01-29,06:00,40.33
2017-01-29,07:00,41.83
2017-01-29,08:00,48.33
2017-01-29,09:00,35.33
2017-01-29,10:00,28.5
2017-01-29,11:00,-999
2017-01-29,12:00,-999
2017-01-29,13:00,-999
2017-01-29,14:00,-999
2017-01-29,15:00,-999
2017-01-29,16:00,-999
2017-01-29,17:00,-999
2017-01-29,18:00,-999
2017-01-29,19:00,-999
2017-01-29,20:00,-999
2017-01-29,21:00,-999
2017-01-29,22:00,-999
2017-01-29,23:00,-999
2017-01-30,00:00,23.5
2017-01-30,01:00,27.33
2017-01-30,02:00,29.83
2017-01-30,03:00,33
2017-01-30,04:00,33.83
2017-01-30,05:00,35.17
2017-01-30,06:00,36.5
2017-01-30,07:00,38.17
2017-01-30,08:00,44
2017-01-30,09:00,34.5
2017-01-30,10:00,26.17
2017-01-30,11:00,-999
2017-01-30,12:00,-999
2017-01-30,13:00,-999
2017-01-30,14:00,-999
2017-01-30,15:00,-999
2017-01-30,16:00,-999
2017-01-30,17:00,-999
2017-01-30,18:00,-999
2017-01-30,19:00,-999
2017-01-30,20:00,-999
2017-01-30,21:00,-999
2017-01-30,22:00,-999
2017-01-30,23:00,-999
2017-01-31,00:00,21
2017-01-31,01:00,24.17
2017-01-31,02:00,26.83
2017-01-31,03:00,29.17
2017-01-31,04:00,30.5
2017-01-31,05:00,32.67
2017-01-31,06:00,32.33
2017-01-31,07:00,35
2017-01-31,08:00,41.17
2017-01-31,09:00,29.5
2017-01-31,10:00,22.33
2017-01-31,11:00,-999
2017-01-31,12:00,-999
2017-01-31,13:00,-999
2017-01-31,14:00,-999
2017-01-31,15:00,-999
2017-01-31,16:00,-999
2017-01-31,17:00,-999
2017-01-31,18:00,-999
2017-01-31,19:00,-999
2017-01-31,20:00,-999
2017-01-31,21:00,-999
2017-01-31,22:00,-999
2017-01-31,23:00,20.17
